DELTA 1 DEB, 21362

Orbit data source: Space-Track

DELTA 1 DEB, 21362 is space debris in SSO originally from a launch on Thu, 12 Jun 1975 UTC launched from the Air Force Western Test Range (AFWTR). Debris objects in space refer to the collection of defunct objects orbiting the Earth. Examples of debris include non-operational satellites, rocket bodies, and fragments generated from explosions, collisions, or faulty payload assembly.

Loading next visibility...
Identifier
21362, 1975-052CG
Orbit
SSO
Country
Flag of USUS
Related business
Manufacturer
Unknown
Mission
Spacecraft
Bus & Motor
Unknown
Mass
Unknown
Launch date (UTC)
1975-06-12 (50 years ago)
Launch vehicle
Unknown
Launch site
Air Force Western Test Range (AFWTR)
Object type
Payload
Rocket body
Debris
Shape & HBR
Unknown shape, 0.1 m
Radar Cross Section
Small (<0.1 m²)

Expand to show TLE details & history
Last TLE update: 1 week ago

TLE from 1 week ago
0 DELTA 1 DEB
1 21362U 75052CG  25292.41102117  .00003223  00000-0  10074-1 0  9993
2 21362  99.4574 105.5547 0660793 347.7660  71.0364 12.47402773541812
Epoch: 2025-10-19T09:51Z
TLE epoch observation values (Epoch: 2025-10-19T09:51:52.229Z)
Latitude
64.52068°
Longitude
-90.89497°
Altitude
1,349.343 km
Speed
7.252 km/s
True Right ascension
05h 40m 48s
True Declination
64° 23' 50"
Sunlit
Object was in daylight at epoch
Visualization orbit readout
Latitude
Unknown
Longitude
Unknown
Altitude
Unknown
Speed
Unknown
Apparent Right ascension
Unknown
Apparent Declination
Unknown
Sunlit
N/A
Visualization observer readout
Local Sidereal Time
10:04:28
Azimuth
Unknown
Elevation
Unknown
Doppler factor
Unknown
Orbital elements
Apogee altitude
1,991.573 km
Perigee altitude
954.005 km
Semi-major axis
7,850.926 km
Eccentricity
0.06608
Inclination
99.4574°
RAAN
105.5547°
Arg. of periapsis
347.766°
True anomaly
78.37467°
Mean anomaly
71.0364°
Eccentric anomaly
74.68807°
Mean motion
3.12005 °/min
Orbital period
115.38 mins
BSTAR
0.010074
Loading maneuver chart data...
Computing Atmospheric mass density...
Loading historical data...
Loading historical data...
Loading historical data...
Loading historical data...
Loading historical data...
Loading historical data...
Loading historical data...

Documentation

Showing up to 5 results
|